Regional Weather Roundup
Issued by NWS

Home | Current Version | Previous Version | Text Only | Print | Product List | Glossary On
Versions: 1 2 3 4 5 6 7 8 9 10 11 12 13 14 15 16 17 18 19 20 21 22 23 24 25 26 27 28 29 30 31 32 33 34 35 36 37 38 39 40 41 42 43 44 45 46 47 48 49 50
000
ASUS43 KMPX 251410
RWRMN
WEATHER ROUNDUP FOR MINNESOTA
NATIONAL WEATHER SERVICE TWIN CITIES/CHANHASSEN MN
800 AM CST SUN JAN 25 2015


NOTE: "FAIR" INDICATES FEW OR NO CLOUDS BELOW 12,000 FEET WITH NO
SIGNIFICANT WEATHER AND/OR OBSTRUCTIONS TO VISIBILITY. N/A MEANS
CURRENT SKY AND/OR WEATHER CONDITIONS ARE NOT AVAILABLE.

MNZ060>063-068>070-251500-
   Twin Cities Metro

CITY           SKY/WX    TMP DP  RH WIND       PRES   REMARKS
TWIN CITIES    MOCLDY    21  12  68 NE14      29.95R WCI   8
ST PAUL        FAIR      20  12  71 N13       29.98R WCI   7
CRYSTAL        PTCLDY    21  13  71 NE12      29.94R WCI   9
BLAINE         MOCLDY    21  16  79 NE10G16   29.95R WCI  10
LAKEVILLE      CLOUDY    21  18  86 NE9       29.93R WCI  11
EDEN PRAIRIE   PTCLDY    21  14  74 NE9       29.93R WCI  11
SOUTH ST PAUL  PTCLDY    22  14  71 NE3       29.95R
LAKE ELMO      FAIR      21  12  68 NE9       29.96R WCI  11
$$
MNZ001>005-007-008-013>017-022>024-027-028-251500-
   Northwest Minnesota

CITY           SKY/WX    TMP DP  RH WIND       PRES   REMARKS
BEMIDJI        CLOUDY    15   9  79 E5        29.96S WCI   7
HALLOCK        CLOUDY    10   5  79 CALM      30.04R
ROSEAU         CLOUDY    10   3  72 E6        30.01S WCI   1
WARROAD        CLOUDY     9   1  72 E5        30.01F WCI   0
THIEF RVR FALL PTCLDY     9   3  78 NE3       30.00R
CROOKSTON      CLEAR     12   9  85 CALM      30.03S
FOSSTON        PTCLDY     7   1  78 CALM      29.98R
DETROIT LAKES  CLEAR     19  16  86 NW5       29.97R WCI  13
MOORHEAD       PTCLDY    19  18  93 N9        30.01R WCI   9
PARK RAPIDS    CLOUDY    21  13  71 NE7       29.95R WCI  12
MAHNOMEN       FAIR      13  10  87 NE3       29.97R
$$
MNZ006-009>011-018-025>026-251500-
   North Central Minnesota

CITY           SKY/WX    TMP DP  RH WIND       PRES   REMARKS
BAUDETTE       CLOUDY     7  -2  66 E6        30.00R WCI  -3
FLAG ISLAND    PTCLDY     7   0  72 E3        30.02R
INTL FALLS     CLOUDY     3  -5  69 E6        30.02R WCI  -8
WASKISH        CLOUDY    10   3  72 CALM      29.99S
BIG FORK       CLOUDY    12   3  67 CALM      29.98S
LONGVILLE      CLOUDY    21  16  79 NE3       29.97R
GRAND RAPIDS   MOCLDY    18  10  73 SE3       29.96R
CRANE LAKE     PTCLDY     1  -6  71 CALM      30.06R
ORR            CLOUDY     5  -4  66 CALM      29.98R
COOK           CLOUDY     5   0  78 CALM      30.01R
WALKER         CLOUDY    17  10  75 N3        29.97R
$$
MNZ012-019>021-037-251500-
   Northeast Minnesota

CITY           SKY/WX    TMP DP  RH WIND       PRES   REMARKS
DULUTH         FLURRIES  17  12  80 NE9       29.96R WCI   6
ELY            CLOUDY    -2  -6  84 CALM      30.00F
HIBBING        CLOUDY    14   6  70 NE5       29.98R WCI   6
EVELETH        CLOUDY    12   9  85 N3        30.00R
DULUTH HARBOR  FLURRIES  23  19  86 NE20      30.02R WCI   8
TWO HARBORS    LGT SNOW  19  12  73 NE6       29.98R WCI  11
SILVER BAY     LGT SNOW  16  10  79 N3        30.00R
GRAND MARAIS     N/A      4  -8  57 N3        30.09S
G MARAIS ARPRT PTCLDY    -9 -15  77 N3        29.96S
$$
MNZ029>031-032-039>041-046>048-054>057-064-251500-
   West Central Minnesota

CITY           SKY/WX    TMP DP  RH WIND       PRES   REMARKS
FERGUS FALLS   CLOUDY    19  18  93 N9        29.99R WCI   9
WHEATON        CLOUDY    19  18  93 NW10      30.00R WCI   8
MORRIS         CLOUDY    27  25  93 NW8       29.93R WCI  18
ALEXANDRIA     CLOUDY    27  23  85 E8        29.92S WCI  19
ELBOW LAKE     CLOUDY    24  22  93 NW6       29.95R WCI  17
WADENA         CLOUDY    21  18  86 NE5       29.93R WCI  15
GLENWOOD       CLOUDY    27  23  86 E7        29.94R WCI  19
APPLETON       CLOUDY    30  28  93 N8        29.95R WCI  23
BENSON         CLOUDY    28  23  80 SE7       29.95R WCI  21
ORTONVILLE     CLOUDY    27  23  86 NW12      29.96R WCI  16
MADISON        CLOUDY    32  30  93 N10       29.95R WCI  24
WILLMAR        MOCLDY    28  25  86 NE9       29.95R WCI  20
$$
MNZ033>034-036-042>043-049>051-058-059-251500-
   Central Minnesota

CITY           SKY/WX    TMP DP  RH WIND       PRES   REMARKS
ST CLOUD       MOCLDY    20  13  74 NE7       29.96R WCI  11
SAUK CENTRE    CLOUDY    23  19  83 E8        29.94R WCI  14
PAYNESVILLE    PTCLDY    20  18  90 N7        29.95R WCI  12
AITKIN         CLOUDY    21  14  73 NE5       29.96R WCI  15
PINE RIVER     CLOUDY    21  16  79 E7        29.99R WCI  13
BRAINERD       CLOUDY    20  13  74 E8        29.96R WCI  10
STAPLES        CLOUDY    21  16  79 E3        29.95R
LONG PRAIRIE   CLOUDY    23  19  86 E7        29.93S WCI  15
LITTLE FALLS   PTCLDY    21  14  73 NE6       29.96R WCI  14
LITCHFIELD     PTCLDY    25  21  86 NE6       29.94R WCI  18
BUFFALO        PTCLDY    20  15  79 NE9       29.97R WCI   9
MAPLE LAKE     CLOUDY    23  19  85 NE9       29.95R WCI  13
$$
MNZ037-044-045-052-053-251500-
   East Central Minnesota

CITY           SKY/WX    TMP DP  RH WIND       PRES   REMARKS
PRINCETON      CLOUDY    21  14  73 NE6       29.96R WCI  14
MORA           CLOUDY    19  12  73 NE3       29.98R
CAMBRIDGE      MOCLDY    21  10  63 E6        29.96R WCI  14
RUSH CITY      CLOUDY    19  12  73 NE8       29.98R WCI   9
MOOSE LAKE     FLURRIES  21  14  73 E7        29.96R WCI  13
HINCKLEY       CLOUDY    21  14  73 NE8       29.97R WCI  12
CLOQUET        CLOUDY    18  14  86 NE7       29.97R WCI   8
MCGREGOR       CLOUDY    21  16  79 NE6       29.97R WCI  14
$$
MNZ071>073-080-081-089-090-097-098-251500-
   Southwest Minnesota

CITY           SKY/WX    TMP DP  RH WIND       PRES   REMARKS
MONTEVIDEO     CLOUDY    30  30 100 E7        29.96R WCI  23
GRANITE FALLS  CLOUDY    31  29  91 N3        29.96R
CANBY          CLOUDY    30  29  96 CALM      29.95R
MARSHALL       CLOUDY    30  28  93 N9        29.95R WCI  22
REDWOOD FALLS  CLOUDY    30  25  81 NE5       29.93R WCI  25
OLIVIA         CLOUDY    28  27  93 NE10      29.93R WCI  19
PIPESTONE      CLOUDY    30  30 100 N12G18    29.90R FOG     WCI  21
WINDOM         CLOUDY    28  27  93 N12       29.90R WCI  18
WORTHINGTON    CLOUDY    30  28  93 N14       29.89R WCI  20
JACKSON        CLOUDY    30  28  93 N15       29.88R WCI  19
TRACY          CLOUDY    31  29  93 NE9       29.92R WCI  23
SLAYTON        CLOUDY    30  29  96 N14G20    29.91R WCI  19
$$
MNZ065>067-074>077-082>085-091>093-251500-
   South Central Minnesota

CITY           SKY/WX    TMP DP  RH WIND       PRES   REMARKS
MANKATO        CLOUDY    27  21  80 NE16      29.90R WCI  14
NEW ULM        CLOUDY    25  21  86 NE16      29.92R WCI  12
ST JAMES       CLOUDY    28  27  93 N12       29.92R WCI  18
FAIRMONT       CLOUDY    30  27  86 N14       29.87R WCI  20
GLENCOE        MOCLDY    23  19  84 NE6       29.94R WCI  16
FARIBAULT      CLOUDY    27  21  80 NE13G18   29.91R WCI  16
OWATONNA       CLOUDY    27  21  80 N16G22    29.88R WCI  14
WASECA         CLOUDY    28  25  86 N16       29.90R WCI  17
ALBERT LEA     CLOUDY    28  27  93 N17       29.84R WCI  16
$$
MNZ078>079-086>088-094>096-251500-
   Southeast Minnesota

CITY           SKY/WX    TMP DP  RH WIND       PRES   REMARKS
ROCHESTER      CLOUDY    29  24  82 NE16      29.85R WCI  17
RED WING       CLOUDY    25  16  68 NE7       29.92R WCI  17
STANTON        CLOUDY    26  19  77 N17       29.91R WCI  12
DODGE CENTER   CLOUDY    27  25  93 N15G21    29.86R WCI  15
WINONA         CLOUDY    30  27  86 E6        29.90R WCI  24
AUSTIN         CLOUDY    28  25  86 N14       29.84R WCI  17
PRESTON        CLOUDY    28  24  87 NE8       29.84R WCI  19
$$
ABBREVIATIONS USED IN REMARKS
   TC - TEMPERATURES IN CELSIUS
  WCI - WIND CHILL INDEX
   HX - HEAT INDEX
  VSB - VISIBILITY
$$



USA.gov is the U.S. government's official web portal to all federal, state and local government web resources and services.